Weather in Yekaterinovka

Russia / Samara Oblast     53°05′15″N   49°27′07″E
temp.,
°C
wind,
m/s
gust,
m/s
humid.,
%
clouds,
%
prec.,
mm/h
press.,
hPa
HPBL,
m
19 september, sun
sun1901:00+4nnw347169 0.0 102464
04:00+3nw227637 0.0 102418
07:00+3nnw227499 0.0 102526
10:00+9n334966 0.0 10251077
13:00+12nnw3336100 0.0 10251452
16:00+12nnw3335100 0.0 10251315
19:00+8n344899 0.0 102549
22:00+7ne224890 0.0 102528
20 september, mon
mon2001:00+5e225593 0.0 102521
04:00+4e346153 0.0 102551
07:00+4e3664100 0.0 1025118
10:00+10e564297 0.0 1025616
13:00+14e553099 0.0 10241248
16:00+15e5527100 0.0 10231462
19:00+12ene483583 0.0 1023204
22:00+9e4943100 0.0 1024248
21 september, tue
tue2101:00+9e51044100 0.0 1024339
04:00+9e4950100 0.1 1023278
07:00+9e41054100 0.1 1022517
10:00+8e61253100 0.3 1022469
13:00+10e71347100 0.0 1021549
16:00+10e61154100 0.0 1020535
19:00+10e71259100 0.1 1019433
22:00+10e6125793 0.1 1019397
22 september, wed
wed2201:00+9e51254100 0.0 1018309
04:00+11e51049100 0.0 1017386
07:00+12ese51060100 0.1 1017392
10:00+11se61186100 0.6 1018482
13:00+11se71288100 3.0 1018605
16:00+10se51189100 4.6 1019448
19:00+10ese51089100 1.1 1020387
22:00+11ese51284100 1.1 1020374
23 september, thu
thu2301:00+11ese41072100 0.0 1020281
04:00+10e51065100 0.0 1020226
07:00+12se51264100 0.0 1021454
10:00+13sse51373100 0.0 1022583
13:00+11e3580100 0.9 1023202
16:00+11sse3979100 1.8 1023593
19:00+9se51382100 1.3 1024602
22:00+9e51083100 1.6 1023408